Location: München
(48.1351°N, 11.5820°E)
Time: 04:57:28
(UTC+02:00)

ISS - Pass Details

Date: 27 May 2021
Orbit: 417 x 422 km, 51.6° (Epoch: 13 June)

Event Time Altitude Azimuth Distance (km) Brightness Sun altitude
Rises 23:50:45 0° 287° (WNW) 2,367 0.6 -18.1°
Reaches altitude 10° 23:53:13 10° 269° (W) 1,500 -0.7 -18.3°
Enters shadow 23:54:58 18° 240° (WSW) 1,102 -1.8 -18.4°
